When you browse on this site, cookies collect data to enhance your experience and personalize the content and advertising you see.
Visit our Privacy Policy to learn more. By continuing to use the site, you agree to this use of cookies and data.

Hourly Weather Spring Garden

Today, 7 July, Tuesday

Time Temperature Precipitation Wind Pressure Humidity
00:00 +11°C° 0 mm 1 mps 644 mmHg 53%
01:00 +9°C° 0 mm 0 mps 644 mmHg 53%
02:00 +10°C° 0 mm 1 mps 644 mmHg 53%
03:00 +9°C° 0 mm 1 mps 644 mmHg 52%
04:00 +9°C° 0 mm 1 mps 644 mmHg 51%
05:00 +12°C° 0 mm 1 mps 645 mmHg 44%
06:00 +14°C° 0 mm 0 mps 646 mmHg 37%
07:00 +17°C° 0 mm 0 mps 647 mmHg 30%
08:00 +22°C° 0 mm 1 mps 648 mmHg 24%
09:00 +25°C° 0 mm 1 mps 649 mmHg 19%
10:00 +27°C° 0 mm 2 mps 649 mmHg 14%
11:00 +28°C° 0 mm 3 mps 649 mmHg 13%
12:00 +29°C° 0 mm 3 mps 649 mmHg 13%
13:00 +29°C° 0 mm 4 mps 649 mmHg 12%
14:00 +29°C° 0 mm 4 mps 648 mmHg 14%
15:00 +28°C° 0 mm 4 mps 648 mmHg 15%
16:00 +28°C° 0 mm 4 mps 647 mmHg 17%
17:00 +26°C° 0 mm 3 mps 647 mmHg 23%
18:00 +23°C° 0 mm 2 mps 646 mmHg 29%
19:00 +21°C° 0 mm 1 mps 646 mmHg 35%
20:00 +19°C° 0 mm 1 mps 645 mmHg 38%
21:00 +15°C° 0 mm 1 mps 645 mmHg 42%
22:00 +12°C° 0 mm 0 mps 645 mmHg 45%
23:00 +13°C° 0 mm 1 mps 645 mmHg 46%

Tomorrow, 8 July, Wednesday

Time Temperature Precipitation Wind Pressure Humidity
00:00 +12°C° 0 mm 1 mps 644 mmHg 47%
01:00 +11°C° 0 mm 1 mps 644 mmHg 47%
02:00 +11°C° 0 mm 1 mps 644 mmHg 48%
03:00 +11°C° 0 mm 1 mps 644 mmHg 49%
04:00 +10°C° 0 mm 1 mps 644 mmHg 50%
05:00 +13°C° 0 mm 1 mps 645 mmHg 45%
06:00 +16°C° 0 mm 1 mps 646 mmHg 39%
07:00 +20°C° 0 mm 1 mps 647 mmHg 33%
08:00 +24°C° 0 mm 1 mps 648 mmHg 27%
09:00 +27°C° 0 mm 1 mps 649 mmHg 21%
10:00 +31°C° 0 mm 1 mps 649 mmHg 15%
11:00 +31°C° 0 mm 2 mps 649 mmHg 14%
12:00 +31°C° 0 mm 3 mps 648 mmHg 14%
13:00 +32°C° 0 mm 4 mps 648 mmHg 13%
14:00 +32°C° 0 mm 4 mps 648 mmHg 14%
15:00 +30°C° 0 mm 4 mps 647 mmHg 15%
16:00 +30°C° 0 mm 4 mps 646 mmHg 16%
17:00 +27°C° 0 mm 3 mps 646 mmHg 22%
18:00 +25°C° 0 mm 2 mps 645 mmHg 28%
19:00 +22°C° 0 mm 1 mps 645 mmHg 34%
20:00 +20°C° 0 mm 1 mps 644 mmHg 38%
21:00 +18°C° 0 mm 1 mps 644 mmHg 42%
22:00 +15°C° 0 mm 1 mps 644 mmHg 45%
23:00 +14°C° 0 mm 1 mps 644 mmHg 46%

Day after tomorrow, 9 July, Thursday

Time Temperature Precipitation Wind Pressure Humidity
00:00 +14°C° 0 mm 1 mps 644 mmHg 46%
01:00 +13°C° 0 mm 1 mps 644 mmHg 47%
02:00 +13°C° 0 mm 1 mps 644 mmHg 47%
03:00 +12°C° 0 mm 1 mps 644 mmHg 47%
04:00 +12°C° 0 mm 1 mps 644 mmHg 47%
05:00 +15°C° 0 mm 1 mps 645 mmHg 41%
06:00 +17°C° 0 mm 0 mps 646 mmHg 35%
07:00 +20°C° 0 mm 0 mps 647 mmHg 29%
08:00 +25°C° 0 mm 1 mps 648 mmHg 25%
09:00 +27°C° 0 mm 2 mps 648 mmHg 20%
10:00 +30°C° 0 mm 3 mps 649 mmHg 15%
11:00 +30°C° 0 mm 3 mps 649 mmHg 14%
12:00 +32°C° 0 mm 4 mps 649 mmHg 12%
13:00 +33°C° 0 mm 5 mps 648 mmHg 11%
14:00 +32°C° 0 mm 5 mps 648 mmHg 11%
15:00 +32°C° 0 mm 5 mps 648 mmHg 11%
16:00 +32°C° 0 mm 5 mps 647 mmHg 11%
17:00 +28°C° 0 mm 3 mps 646 mmHg 17%
18:00 +25°C° 0 mm 2 mps 646 mmHg 23%
19:00 +22°C° 0 mm 1 mps 645 mmHg 28%
20:00 +21°C° 0 mm 1 mps 645 mmHg 30%
21:00 +19°C° 0 mm 1 mps 645 mmHg 31%
22:00 +16°C° 0 mm 1 mps 645 mmHg 33%
23:00 +15°C° 0 mm 1 mps 645 mmHg 34%

10 July, Friday

Time Temperature Precipitation Wind Pressure Humidity
00:00 +14°C° 0 mm 1 mps 645 mmHg 35%
01:00 +14°C° 0 mm 1 mps 645 mmHg 37%
02:00 +13°C° 0 mm 1 mps 645 mmHg 38%
03:00 +13°C° 0 mm 1 mps 645 mmHg 38%
04:00 +12°C° 0 mm 1 mps 645 mmHg 39%
05:00 +15°C° 0 mm 1 mps 646 mmHg 35%
06:00 +17°C° 0 mm 0 mps 647 mmHg 31%
07:00 +20°C° 0 mm 0 mps 649 mmHg 26%
08:00 +25°C° 0 mm 1 mps 649 mmHg 21%
09:00 +28°C° 0 mm 2 mps 650 mmHg 16%
10:00 +32°C° 0 mm 2 mps 651 mmHg 11%
11:00 +33°C° 0 mm 3 mps 651 mmHg 11%
12:00 +34°C° 0 mm 4 mps 651 mmHg 10%
13:00 +35°C° 0 mm 5 mps 651 mmHg 9%
14:00 +34°C° 0 mm 4 mps 650 mmHg 9%
15:00 +34°C° 0 mm 4 mps 650 mmHg 10%
16:00 +34°C° 0 mm 4 mps 650 mmHg 10%
17:00 +30°C° 0 mm 3 mps 649 mmHg 16%
18:00 +27°C° 0 mm 2 mps 648 mmHg 21%
19:00 +24°C° 0 mm 1 mps 647 mmHg 27%
20:00 +22°C° 0 mm 1 mps 647 mmHg 28%
21:00 +19°C° 0 mm 1 mps 647 mmHg 30%
22:00 +16°C° 0 mm 1 mps 647 mmHg 31%
23:00 +16°C° 0 mm 1 mps 647 mmHg 32%

11 July, Saturday

Time Temperature Precipitation Wind Pressure Humidity
00:00 +15°C° 0 mm 1 mps 647 mmHg 32%
01:00 +15°C° 0 mm 1 mps 646 mmHg 32%
02:00 +15°C° 0 mm 1 mps 647 mmHg 31%
03:00 +15°C° 0 mm 1 mps 647 mmHg 31%
04:00 +15°C° 0 mm 1 mps 647 mmHg 30%
05:00 +18°C° 0 mm 1 mps 648 mmHg 28%
06:00 +21°C° 0 mm 1 mps 648 mmHg 25%
07:00 +24°C° 0 mm 1 mps 649 mmHg 23%
08:00 +27°C° 0 mm 2 mps 650 mmHg 20%
09:00 +30°C° 0 mm 3 mps 651 mmHg 16%
10:00 +34°C° 0 mm 4 mps 651 mmHg 13%
11:00 +34°C° 0 mm 5 mps 651 mmHg 13%
12:00 +35°C° 0 mm 5 mps 651 mmHg 12%
13:00 +35°C° 0 mm 6 mps 651 mmHg 11%
14:00 +34°C° 0 mm 6 mps 650 mmHg 12%
15:00 +34°C° 0 mm 5 mps 650 mmHg 12%
16:00 +33°C° 0 mm 5 mps 649 mmHg 13%
17:00 +30°C° 0 mm 4 mps 648 mmHg 18%
18:00 +27°C° 0 mm 3 mps 648 mmHg 23%
19:00 +24°C° 0 mm 2 mps 647 mmHg 28%
20:00 +21°C° 0 mm 2 mps 647 mmHg 30%
21:00 +20°C° 0 mm 1 mps 646 mmHg 32%
22:00 +16°C° 0 mm 1 mps 646 mmHg 34%
23:00 +16°C° 0 mm 1 mps 646 mmHg 34%

12 July, Sunday

Time Temperature Precipitation Wind Pressure Humidity
00:00 +15°C° 0 mm 1 mps 646 mmHg 34%
01:00 +14°C° 0 mm 1 mps 645 mmHg 34%
02:00 +14°C° 0 mm 1 mps 645 mmHg 35%
03:00 +14°C° 0 mm 1 mps 645 mmHg 36%
04:00 +13°C° 0 mm 1 mps 645 mmHg 37%
05:00 +16°C° 0 mm 1 mps 646 mmHg 32%
06:00 +19°C° 0 mm 2 mps 647 mmHg 28%
07:00 +23°C° 0 mm 2 mps 648 mmHg 23%
08:00 +25°C° 0 mm 3 mps 648 mmHg 18%
09:00 +27°C° 0 mm 5 mps 649 mmHg 13%
10:00 +29°C° 0 mm 6 mps 649 mmHg 8%
11:00 +29°C° 0 mm 6 mps 649 mmHg 8%
12:00 +30°C° 0 mm 7 mps 649 mmHg 8%
13:00 +30°C° 0 mm 7 mps 649 mmHg 8%
14:00 +30°C° 0 mm 6 mps 648 mmHg 9%
15:00 +29°C° 0 mm 6 mps 648 mmHg 10%
16:00 +29°C° 0 mm 6 mps 647 mmHg 11%
17:00 +26°C° 0 mm 4 mps 647 mmHg 17%
18:00 +24°C° 0 mm 3 mps 646 mmHg 23%
19:00 +20°C° 0 mm 2 mps 646 mmHg 28%
20:00 +19°C° 0 mm 1 mps 646 mmHg 31%
21:00 +16°C° 0 mm 1 mps 646 mmHg 34%
22:00 +14°C° 0 mm 1 mps 646 mmHg 36%
23:00 +13°C° 0 mm 1 mps 646 mmHg 35%
Show more